#timestamp,LO_Frequency,Hit,StdDev 
1594576815.8,286046998.9,N
1594576835.6,286046999.4,N
1594576855.5,286047001.1,N
1594576875.3,286046998.5,N
1594576895.1,286046998.6,N
1594576915.9,286046999.3,N
1594576935.7,286046999.2,N
1594576955.6,286046998.9,N
1594576975.4,286046996.7,N
1594576995.2,286046996.8,N
1594577015.1,286046997.4,N
1594577016.0,286046997.4,N
1594577035.8,286046997.5,N
1594577055.7,286046997.8,N
1594577075.5,286046999.5,N
1594577095.3,286046996.5,N
1594577115.2,286046999.4,N
1594577135.0,286046996.9,N
1594577135.9,286046996.9,N
1594577155.8,286046997.1,N
1594577175.6,286046996.9,N
1594577195.4,286046996.6,N
1594577215.3,286046999.6,N
1594577235.1,286046997.3,N
1594577255.8,286046997.0,N
1594577275.7,286046999.0,N
1594577295.5,286047000.4,N
1594577315.4,286046998.6,N
1594577335.2,286046999.3,N
1594577355.0,286046999.2,N
1594577355.9,286046999.2,N
1594577375.8,286046997.0,N
1594577395.6,286046998.7,N
1594577415.5,286046999.2,N
1594577435.3,286046999.6,N
1594577455.1,286046999.2,N
1594577475.9,286046998.4,N
1594577495.7,286046998.9,N
1594577515.6,286046999.4,N
1594577535.4,286047001.0,N
1594577555.2,286046999.9,N
1594577575.1,286046998.7,N
1594577576.0,286046998.7,N
1594577595.8,286047001.1,N
1594577615.6,286046998.4,N
1594577635.5,286046998.7,N
1594577655.3,286046998.5,N
1594577675.2,286047000.9,N
1594577695.9,286047001.1,N
1594577715.7,286047001.1,N
1594577735.6,286047001.2,N
1594577755.4,286047000.9,N
1594577775.3,286047000.7,N
1594577795.1,286047001.0,N
1594577796.0,286047001.0,N
1594577815.8,286047002.7,N
1594577835.7,286047000.8,N
1594577855.5,286046998.4,N
1594577875.4,286046996.9,N
1594577895.2,286046997.0,N
1594577915.0,286046996.6,N
1594577915.9,286046996.6,N
1594577935.8,286046999.2,N
1594577955.6,286046999.0,N
1594577975.4,286046997.0,N
1594577995.3,286046996.9,N
1594578015.1,286046998.9,N
1594578035.9,286046998.9,N
1594578055.7,286046998.5,N
1594578075.5,286046998.3,N
1594578095.4,286047001.2,N
1594578115.2,286046998.5,N
1594578135.1,286046998.9,N
1594578136.0,286046998.9,N
1594578155.8,286047000.8,N
1594578175.6,286046999.8,N
1594578195.5,286047000.0,N
1594578215.3,286047001.0,N
1594578235.1,286047001.0,N
1594578255.9,286047001.1,N
1594578305.8,286047000.2,E
1594578315.7,286047000.3,N
1594578335.5,286047002.5,P
1594578355.4,286047001.3,N
1594578375.2,286047002.5,N
1594578395.0,286046999.8,N
1594578395.9,286046999.8,N
1594578415.8,286047002.4,N
1594578435.6,286047002.5,N
1594578455.4,286047002.1,N
1594578475.3,286047002.5,N
1594578495.1,286046999.8,N
1594578515.9,286047002.8,N
1594578535.7,286047002.6,N
1594578555.5,286046999.7,N
1594578575.4,286047000.3,N
1594578595.2,286047000.1,N
1594578615.0,286047000.3,N
1594578615.9,286047000.3,N
1594578635.8,286047002.3,N
1594578655.6,286047002.3,N
1594578675.5,286047002.3,N
1594578695.3,286047002.8,N
1594578715.1,286047000.2,N
1594578735.9,286047002.8,N
1594578755.7,286047002.2,N
1594578775.6,286047002.2,N
1594578795.4,286047002.1,N
1594578815.2,286047001.8,N
1594578835.1,286047001.4,N
1594578836.0,286047001.4,N
1594578855.8,286047001.3,N
1594578875.6,286047002.0,N
1594578895.5,286047002.3,N
1594578915.3,286047001.8,N
1594578935.2,286046999.7,N
1594578955.9,286047002.0,N
1594578975.7,286046999.9,N
1594578995.6,286047002.2,N
1594579015.4,286047001.5,N
1594579035.3,286047001.6,N
1594579055.1,286047001.7,N
1594579075.8,286047004.2,Y
1594579095.7,286047000.1,P
1594579115.5,286047000.7,N
1594579135.4,286047000.0,N
1594579155.2,286047002.4,Y
1594579175.0,286047002.3,P
1594579175.9,286047002.3,N
1594579195.8,286047001.1,N
1594579215.6,286046998.4,N
1594579235.5,286047000.3,N
1594579255.3,286047001.0,N
1594579275.1,286046998.2,N
1594579295.9,286047000.9,N
1594579315.7,286047000.9,N
1594579335.6,286047001.7,N
1594579355.4,286047001.6,N
1594579375.2,286047000.1,N
1594579395.1,286047002.8,N
1594579396.0,286047002.8,N
1594579415.8,286047002.5,N
1594579435.7,286047001.0,N
1594579455.5,286047000.4,N
1594579475.3,286046998.5,N
1594579495.2,286046998.2,N
1594579515.0,286047001.0,N
1594579515.9,286047001.0,N
1594579535.8,286047001.7,N
1594579555.6,286047001.5,N
1594579575.4,286047004.3,Y
1594579595.3,286047001.5,P
1594579615.1,286047001.6,P
1594579635.9,286047000.8,N
1594579655.7,286046998.6,Y
1594579675.5,286047000.0,P
1594579695.4,286046998.6,N
1594579715.2,286047002.7,N
1594579735.1,286046999.7,N
1594579736.0,286046999.7,N
1594579755.8,286047002.5,N
1594579775.7,286047005.5,Y
1594579795.5,286047005.6,P
1594579815.3,286047004.7,N
1594579835.2,286047004.8,N
1594579855.0,286047006.4,Y
1594579855.9,286047006.4,P
1594579875.8,286047002.7,N
1594579895.6,286047000.8,N
1594579915.4,286046999.2,N
1594579935.3,286046999.0,N
1594579955.1,286047000.4,N
1594579975.8,286047000.2,N
1594579995.7,286047002.5,N
1594580015.5,286047002.5,N
1594580035.4,286047001.0,N
1594580055.2,286046995.3,N
1594580075.0,286046999.4,N
1594580075.9,286046999.4,N
1594580095.8,286046997.2,N
1594580115.6,286046995.5,N
1594580135.5,286046993.8,N
1594580155.3,286046995.8,N
1594580175.1,286046997.7,N
1594580195.9,286046996.9,N
1594580215.7,286046994.9,N
1594580235.5,286046995.0,N
1594580255.4,286046999.5,N
1594580275.2,286046999.3,N
1594580295.1,286046998.4,N
1594580296.0,286046998.4,N
1594580315.8,286046999.3,N
1594580335.6,286047001.1,N
1594580355.5,286046995.2,N
1594580375.3,286046996.2,N
1594580395.2,286046993.3,N
